<?xml version="1.0" encoding="UTF-8"?>
<gpx
version="1.1"
creator="Kashmir3D 9.340 - http://www.kashmir3d.com"
xmlns:xsi="http://www.w3.org/2001/XMLSchema-instance"
xmlns="http://www.topografix.com/GPX/1/1"
xmlns:kashmir3d="http://www.kashmir3d.com/namespace/kashmir3d"
xsi:schemaLocation="http://www.topografix.com/GPX/1/1 http://www.topografix.com/GPX/1/1/gpx.xsd
	http://www.kashmir3d.com/namespace/kashmir3d http://www.kashmir3d.com/namespace/kashmir3d.xsd">
<trk>
 <name>立花山</name>
 <number>1</number>
 <extensions>
 <kashmir3d:line_color>0000ff</kashmir3d:line_color>
 <kashmir3d:line_size>3</kashmir3d:line_size>
 <kashmir3d:line_style>1</kashmir3d:line_style>
 <kashmir3d:icon>901001</kashmir3d:icon>
 </extensions>
<trkseg>
<trkpt lat="33.685078" lon="130.473413">
 <ele>81.5</ele>
 <time>2020-03-24T14:35:28Z</time>
</trkpt>
<trkpt lat="33.685181" lon="130.473338">
 <ele>81.1</ele>
 <time>2020-03-24T14:35:28Z</time>
</trkpt>
<trkpt lat="33.685164" lon="130.473177">
 <ele>83.5</ele>
 <time>2020-03-24T14:35:29Z</time>
</trkpt>
<trkpt lat="33.685061" lon="130.472888">
 <ele>87.1</ele>
 <time>2020-03-24T14:35:29Z</time>
</trkpt>
<trkpt lat="33.685052" lon="130.472684">
 <ele>89.1</ele>
 <time>2020-03-24T14:35:29Z</time>
</trkpt>
<trkpt lat="33.685155" lon="130.472501">
 <ele>90.5</ele>
 <time>2020-03-24T14:35:29Z</time>
</trkpt>
<trkpt lat="33.685155" lon="130.472319">
 <ele>92.3</ele>
 <time>2020-03-24T14:35:29Z</time>
</trkpt>
<trkpt lat="33.685104" lon="130.472147">
 <ele>94.1</ele>
 <time>2020-03-24T14:35:29Z</time>
</trkpt>
<trkpt lat="33.684975" lon="130.471954">
 <ele>97.2</ele>
 <time>2020-03-24T14:35:29Z</time>
</trkpt>
<trkpt lat="33.684838" lon="130.471879">
 <ele>100.1</ele>
 <time>2020-03-24T14:35:29Z</time>
</trkpt>
<trkpt lat="33.684666" lon="130.471868">
 <ele>103.6</ele>
 <time>2020-03-24T14:35:30Z</time>
</trkpt>
<trkpt lat="33.684503" lon="130.471750">
 <ele>106.4</ele>
 <time>2020-03-24T14:35:30Z</time>
</trkpt>
<trkpt lat="33.684323" lon="130.471654">
 <ele>111.1</ele>
 <time>2020-03-24T14:35:30Z</time>
</trkpt>
<trkpt lat="33.684117" lon="130.471622">
 <ele>115.6</ele>
 <time>2020-03-24T14:35:30Z</time>
</trkpt>
<trkpt lat="33.683954" lon="130.471514">
 <ele>120.7</ele>
 <time>2020-03-24T14:35:30Z</time>
</trkpt>
<trkpt lat="33.683851" lon="130.471321">
 <ele>123.5</ele>
 <time>2020-03-24T14:35:30Z</time>
</trkpt>
<trkpt lat="33.683748" lon="130.471160">
 <ele>125.3</ele>
 <time>2020-03-24T14:35:30Z</time>
</trkpt>
<trkpt lat="33.683542" lon="130.471074">
 <ele>130.1</ele>
 <time>2020-03-24T14:35:30Z</time>
</trkpt>
<trkpt lat="33.683430" lon="130.471010">
 <ele>133.4</ele>
 <time>2020-03-24T14:35:31Z</time>
</trkpt>
<trkpt lat="33.683250" lon="130.470720">
 <ele>143.4</ele>
 <time>2020-03-24T14:35:31Z</time>
</trkpt>
<trkpt lat="33.683181" lon="130.470463">
 <ele>150.9</ele>
 <time>2020-03-24T14:35:31Z</time>
</trkpt>
<trkpt lat="33.683052" lon="130.470270">
 <ele>158.7</ele>
 <time>2020-03-24T14:35:31Z</time>
</trkpt>
<trkpt lat="33.682949" lon="130.470077">
 <ele>164.2</ele>
 <time>2020-03-24T14:35:31Z</time>
</trkpt>
<trkpt lat="33.682889" lon="130.469873">
 <ele>167.7</ele>
 <time>2020-03-24T14:35:31Z</time>
</trkpt>
<trkpt lat="33.682726" lon="130.469411">
 <ele>174.2</ele>
 <time>2020-03-24T14:35:31Z</time>
</trkpt>
<trkpt lat="33.682649" lon="130.469261">
 <ele>176.9</ele>
 <time>2020-03-24T14:35:32Z</time>
</trkpt>
<trkpt lat="33.682555" lon="130.469100">
 <ele>180.9</ele>
 <time>2020-03-24T14:35:32Z</time>
</trkpt>
<trkpt lat="33.682426" lon="130.468843">
 <ele>188.1</ele>
 <time>2020-03-24T14:35:32Z</time>
</trkpt>
<trkpt lat="33.682323" lon="130.468639">
 <ele>195.2</ele>
 <time>2020-03-24T14:35:32Z</time>
</trkpt>
<trkpt lat="33.682211" lon="130.468575">
 <ele>199.3</ele>
 <time>2020-03-24T14:35:32Z</time>
</trkpt>
<trkpt lat="33.682091" lon="130.468403">
 <ele>205.8</ele>
 <time>2020-03-24T14:35:32Z</time>
</trkpt>
<trkpt lat="33.681979" lon="130.468285">
 <ele>212.3</ele>
 <time>2020-03-24T14:35:32Z</time>
</trkpt>
<trkpt lat="33.681894" lon="130.468135">
 <ele>217.6</ele>
 <time>2020-03-24T14:35:32Z</time>
</trkpt>
<trkpt lat="33.681808" lon="130.467974">
 <ele>224.6</ele>
 <time>2020-03-24T14:35:33Z</time>
</trkpt>
<trkpt lat="33.681713" lon="130.467856">
 <ele>230.1</ele>
 <time>2020-03-24T14:35:33Z</time>
</trkpt>
<trkpt lat="33.681662" lon="130.467748">
 <ele>235.9</ele>
 <time>2020-03-24T14:35:33Z</time>
</trkpt>
<trkpt lat="33.681585" lon="130.467856">
 <ele>238.6</ele>
 <time>2020-03-24T14:35:33Z</time>
</trkpt>
<trkpt lat="33.681490" lon="130.467963">
 <ele>245.9</ele>
 <time>2020-03-24T14:35:33Z</time>
</trkpt>
<trkpt lat="33.681439" lon="130.468103">
 <ele>248.4</ele>
 <time>2020-03-24T14:35:33Z</time>
</trkpt>
<trkpt lat="33.681456" lon="130.468274">
 <ele>248.1</ele>
 <time>2020-03-24T14:35:33Z</time>
</trkpt>
<trkpt lat="33.681533" lon="130.468532">
 <ele>239.6</ele>
 <time>2020-03-24T14:35:33Z</time>
</trkpt>
<trkpt lat="33.681567" lon="130.468714">
 <ele>240.4</ele>
 <time>2020-03-24T14:35:34Z</time>
</trkpt>
<trkpt lat="33.681542" lon="130.468993">
 <ele>242.4</ele>
 <time>2020-03-24T14:35:34Z</time>
</trkpt>
<trkpt lat="33.681516" lon="130.469111">
 <ele>246</ele>
 <time>2020-03-24T14:35:34Z</time>
</trkpt>
<trkpt lat="33.681361" lon="130.469240">
 <ele>254</ele>
 <time>2020-03-24T14:35:34Z</time>
</trkpt>
<trkpt lat="33.681207" lon="130.469347">
 <ele>259</ele>
 <time>2020-03-24T14:35:34Z</time>
</trkpt>
<trkpt lat="33.681121" lon="130.469487">
 <ele>258.4</ele>
 <time>2020-03-24T14:35:34Z</time>
</trkpt>
<trkpt lat="33.681035" lon="130.469658">
 <ele>256.9</ele>
 <time>2020-03-24T14:35:34Z</time>
</trkpt>
<trkpt lat="33.680804" lon="130.469755">
 <ele>269.2</ele>
 <time>2020-03-24T14:35:34Z</time>
</trkpt>
<trkpt lat="33.680512" lon="130.469884">
 <ele>279.7</ele>
 <time>2020-03-24T14:35:35Z</time>
</trkpt>
<trkpt lat="33.680460" lon="130.469851">
 <ele>285.6</ele>
 <time>2020-03-24T14:35:35Z</time>
</trkpt>
<trkpt lat="33.680460" lon="130.469712">
 <ele>291.2</ele>
 <time>2020-03-24T14:35:35Z</time>
</trkpt>
<trkpt lat="33.680529" lon="130.469487">
 <ele>294.8</ele>
 <time>2020-03-24T14:35:35Z</time>
</trkpt>
<trkpt lat="33.680580" lon="130.469304">
 <ele>295.4</ele>
 <time>2020-03-24T14:35:35Z</time>
</trkpt>
<trkpt lat="33.680598" lon="130.469132">
 <ele>299</ele>
 <time>2020-03-24T14:35:35Z</time>
</trkpt>
<trkpt lat="33.680529" lon="130.468896">
 <ele>308.1</ele>
 <time>2020-03-24T14:35:35Z</time>
</trkpt>
<trkpt lat="33.680331" lon="130.468789">
 <ele>321.4</ele>
 <time>2020-03-24T14:35:36Z</time>
</trkpt>
<trkpt lat="33.680186" lon="130.468596">
 <ele>336.9</ele>
 <time>2020-03-24T14:35:36Z</time>
</trkpt>
<trkpt lat="33.680100" lon="130.468253">
 <ele>345.1</ele>
 <time>2020-03-24T14:35:36Z</time>
</trkpt>
<trkpt lat="33.680074" lon="130.468092">
 <ele>343.8</ele>
 <time>2020-03-24T14:35:36Z</time>
</trkpt>
<trkpt lat="33.679997" lon="130.468017">
 <ele>349.9</ele>
 <time>2020-03-24T14:35:36Z</time>
</trkpt>
<trkpt lat="33.679868" lon="130.468124">
 <ele>361.9</ele>
 <time>2020-03-24T14:35:36Z</time>
</trkpt>
<trkpt lat="33.679765" lon="130.468167">
 <ele>366.6</ele>
 <time>2020-03-24T14:35:36Z</time>
</trkpt>
<trkpt lat="33.679722" lon="130.468314">
 <ele>367</ele>
 <time>2020-03-24T14:35:36Z</time>
</trkpt>
<trkpt lat="33.679774" lon="130.468156">
 <ele>366.6</ele>
 <time>2020-03-24T14:35:37Z</time>
</trkpt>
<trkpt lat="33.679868" lon="130.468124">
 <ele>361.9</ele>
 <time>2020-03-24T14:35:37Z</time>
</trkpt>
<trkpt lat="33.680005" lon="130.468017">
 <ele>349.9</ele>
 <time>2020-03-24T14:35:37Z</time>
</trkpt>
<trkpt lat="33.680083" lon="130.468092">
 <ele>343.8</ele>
 <time>2020-03-24T14:35:37Z</time>
</trkpt>
<trkpt lat="33.680100" lon="130.468242">
 <ele>345.1</ele>
 <time>2020-03-24T14:35:37Z</time>
</trkpt>
<trkpt lat="33.680186" lon="130.468585">
 <ele>336.9</ele>
 <time>2020-03-24T14:35:37Z</time>
</trkpt>
<trkpt lat="33.680323" lon="130.468778">
 <ele>321.9</ele>
 <time>2020-03-24T14:35:37Z</time>
</trkpt>
<trkpt lat="33.680537" lon="130.468886">
 <ele>305.7</ele>
 <time>2020-03-24T14:35:37Z</time>
</trkpt>
<trkpt lat="33.680598" lon="130.469122">
 <ele>299.9</ele>
 <time>2020-03-24T14:35:38Z</time>
</trkpt>
<trkpt lat="33.680580" lon="130.469293">
 <ele>296.4</ele>
 <time>2020-03-24T14:35:38Z</time>
</trkpt>
<trkpt lat="33.680529" lon="130.469476">
 <ele>294.8</ele>
 <time>2020-03-24T14:35:38Z</time>
</trkpt>
<trkpt lat="33.680460" lon="130.469701">
 <ele>291.2</ele>
 <time>2020-03-24T14:35:38Z</time>
</trkpt>
<trkpt lat="33.680460" lon="130.469841">
 <ele>285.6</ele>
 <time>2020-03-24T14:35:38Z</time>
</trkpt>
<trkpt lat="33.680520" lon="130.469873">
 <ele>279.7</ele>
 <time>2020-03-24T14:35:38Z</time>
</trkpt>
<trkpt lat="33.680795" lon="130.469744">
 <ele>269.2</ele>
 <time>2020-03-24T14:35:38Z</time>
</trkpt>
<trkpt lat="33.681035" lon="130.469658">
 <ele>256.9</ele>
 <time>2020-03-24T14:35:39Z</time>
</trkpt>
<trkpt lat="33.681113" lon="130.469487">
 <ele>258.4</ele>
 <time>2020-03-24T14:35:39Z</time>
</trkpt>
<trkpt lat="33.681207" lon="130.469347">
 <ele>259</ele>
 <time>2020-03-24T14:35:39Z</time>
</trkpt>
<trkpt lat="33.681353" lon="130.469240">
 <ele>255.8</ele>
 <time>2020-03-24T14:35:39Z</time>
</trkpt>
<trkpt lat="33.681525" lon="130.469111">
 <ele>246</ele>
 <time>2020-03-24T14:35:39Z</time>
</trkpt>
<trkpt lat="33.681550" lon="130.468993">
 <ele>242.4</ele>
 <time>2020-03-24T14:35:39Z</time>
</trkpt>
<trkpt lat="33.681567" lon="130.468714">
 <ele>240.4</ele>
 <time>2020-03-24T14:35:39Z</time>
</trkpt>
<trkpt lat="33.681533" lon="130.468542">
 <ele>239.6</ele>
 <time>2020-03-24T14:35:39Z</time>
</trkpt>
<trkpt lat="33.681456" lon="130.468274">
 <ele>248.1</ele>
 <time>2020-03-24T14:35:40Z</time>
</trkpt>
<trkpt lat="33.681439" lon="130.468103">
 <ele>248.4</ele>
 <time>2020-03-24T14:35:40Z</time>
</trkpt>
<trkpt lat="33.681490" lon="130.467963">
 <ele>245.9</ele>
 <time>2020-03-24T14:35:40Z</time>
</trkpt>
<trkpt lat="33.681593" lon="130.467856">
 <ele>238.6</ele>
 <time>2020-03-24T14:35:40Z</time>
</trkpt>
<trkpt lat="33.681670" lon="130.467748">
 <ele>235.9</ele>
 <time>2020-03-24T14:35:40Z</time>
</trkpt>
<trkpt lat="33.681713" lon="130.467856">
 <ele>230.1</ele>
 <time>2020-03-24T14:35:40Z</time>
</trkpt>
<trkpt lat="33.681808" lon="130.467963">
 <ele>225.4</ele>
 <time>2020-03-24T14:35:40Z</time>
</trkpt>
<trkpt lat="33.681894" lon="130.468124">
 <ele>217.6</ele>
 <time>2020-03-24T14:35:40Z</time>
</trkpt>
<trkpt lat="33.681979" lon="130.468274">
 <ele>212.3</ele>
 <time>2020-03-24T14:35:41Z</time>
</trkpt>
<trkpt lat="33.682091" lon="130.468414">
 <ele>205.8</ele>
 <time>2020-03-24T14:35:41Z</time>
</trkpt>
<trkpt lat="33.682211" lon="130.468575">
 <ele>199.3</ele>
 <time>2020-03-24T14:35:41Z</time>
</trkpt>
<trkpt lat="33.682331" lon="130.468650">
 <ele>195.2</ele>
 <time>2020-03-24T14:35:41Z</time>
</trkpt>
<trkpt lat="33.682434" lon="130.468864">
 <ele>188.1</ele>
 <time>2020-03-24T14:35:41Z</time>
</trkpt>
<trkpt lat="33.682563" lon="130.469111">
 <ele>180.9</ele>
 <time>2020-03-24T14:35:41Z</time>
</trkpt>
<trkpt lat="33.682658" lon="130.469283">
 <ele>176.9</ele>
 <time>2020-03-24T14:35:41Z</time>
</trkpt>
<trkpt lat="33.682735" lon="130.469401">
 <ele>174.2</ele>
 <time>2020-03-24T14:35:41Z</time>
</trkpt>
<trkpt lat="33.682906" lon="130.469884">
 <ele>166.1</ele>
 <time>2020-03-24T14:35:42Z</time>
</trkpt>
<trkpt lat="33.682949" lon="130.470077">
 <ele>164.2</ele>
 <time>2020-03-24T14:35:42Z</time>
</trkpt>
<trkpt lat="33.683044" lon="130.470280">
 <ele>158.7</ele>
 <time>2020-03-24T14:35:42Z</time>
</trkpt>
<trkpt lat="33.683190" lon="130.470463">
 <ele>150.9</ele>
 <time>2020-03-24T14:35:42Z</time>
</trkpt>
<trkpt lat="33.683267" lon="130.470720">
 <ele>143.4</ele>
 <time>2020-03-24T14:35:42Z</time>
</trkpt>
<trkpt lat="33.683421" lon="130.471010">
 <ele>134.3</ele>
 <time>2020-03-24T14:35:42Z</time>
</trkpt>
<trkpt lat="33.683533" lon="130.471074">
 <ele>130.1</ele>
 <time>2020-03-24T14:35:42Z</time>
</trkpt>
<trkpt lat="33.683748" lon="130.471160">
 <ele>125.3</ele>
 <time>2020-03-24T14:35:43Z</time>
</trkpt>
<trkpt lat="33.683868" lon="130.471321">
 <ele>122.9</ele>
 <time>2020-03-24T14:35:43Z</time>
</trkpt>
<trkpt lat="33.683962" lon="130.471525">
 <ele>120</ele>
 <time>2020-03-24T14:35:43Z</time>
</trkpt>
<trkpt lat="33.684117" lon="130.471622">
 <ele>115.6</ele>
 <time>2020-03-24T14:35:43Z</time>
</trkpt>
<trkpt lat="33.684314" lon="130.471654">
 <ele>111.9</ele>
 <time>2020-03-24T14:35:43Z</time>
</trkpt>
<trkpt lat="33.684503" lon="130.471750">
 <ele>106.4</ele>
 <time>2020-03-24T14:35:43Z</time>
</trkpt>
<trkpt lat="33.684666" lon="130.471868">
 <ele>103.6</ele>
 <time>2020-03-24T14:35:43Z</time>
</trkpt>
<trkpt lat="33.684846" lon="130.471879">
 <ele>100.1</ele>
 <time>2020-03-24T14:35:43Z</time>
</trkpt>
<trkpt lat="33.684984" lon="130.471954">
 <ele>97.2</ele>
 <time>2020-03-24T14:35:44Z</time>
</trkpt>
<trkpt lat="33.685104" lon="130.472147">
 <ele>94.1</ele>
 <time>2020-03-24T14:35:44Z</time>
</trkpt>
<trkpt lat="33.685164" lon="130.472330">
 <ele>92.3</ele>
 <time>2020-03-24T14:35:44Z</time>
</trkpt>
<trkpt lat="33.685164" lon="130.472512">
 <ele>90.5</ele>
 <time>2020-03-24T14:35:44Z</time>
</trkpt>
<trkpt lat="33.685052" lon="130.472694">
 <ele>88.6</ele>
 <time>2020-03-24T14:35:44Z</time>
</trkpt>
<trkpt lat="33.685069" lon="130.472888">
 <ele>86.6</ele>
 <time>2020-03-24T14:35:44Z</time>
</trkpt>
<trkpt lat="33.685164" lon="130.473199">
 <ele>83.5</ele>
 <time>2020-03-24T14:35:44Z</time>
</trkpt>
<trkpt lat="33.685190" lon="130.473327">
 <ele>81.6</ele>
 <time>2020-03-24T14:35:44Z</time>
</trkpt>
<trkpt lat="33.685087" lon="130.473403">
 <ele>81.5</ele>
 <time>2020-03-24T14:35:45Z</time>
</trkpt>
</trkseg>
</trk>
</gpx>

